KC0PSR Weather Reports


time (UTC)temp
F
wind
direction
speed
knots
gust
knots
rain 1hr
in
rain 24hr
in
rain mn
in
humidity
%
barometer
mb
20260502152047 59 242 8.7 13.9 0.00 0.00 0.00 46 1016.9
20260502151558 58 227 6.1 13.9 0.00 0.00 0.00 47 1016.9
20260502151050 58 217 6.1 13.9 0.00 0.00 0.00 46 1017.0
20260502150552 58 260 5.2 12.2 0.00 0.00 0.00 48 1017.0
20260502130549 43 202 2.6 7.0 0.00 0.00 0.00 70 1018.1
20260502123547 39 219 2.6 6.1 0.00 0.00 0.00 75 1018.3
20260502123112 38 230 2.6 6.1 0.00 0.00 0.00 75 1018.4
20260502122548 37 204 3.5 6.1 0.00 0.00 0.00 76 1018.4
20260502122052 37 214 2.6 7.0 0.00 0.00 0.00 76 1018.4
20260502121557 36 219 2.6 7.0 0.00 0.00 0.00 77 1018.4
20260502121051 35 232 3.5 6.1 0.00 0.00 0.00 78 1018.3
20260502120549 35 184 1.7 4.3 0.00 0.00 0.00 78 1018.4
20260502120111 34 205 1.7 4.3 0.00 0.00 0.00 78 1018.4
20260502115548 34 217 1.7 4.3 0.00 0.00 0.00 78 1018.4
20260502115048 33 221 0.9 4.3 0.00 0.00 0.00 78 1018.5
20260502114552 33 226 1.7 5.2 0.00 0.00 0.00 78 1018.5
20260502114048 33 189 2.6 5.2 0.00 0.00 0.00 77 1018.6
20260502113548 34 213 2.6 5.2 0.00 0.00 0.00 77 1018.7
20260502113054 34 225 1.7 5.2 0.00 0.00 0.00 78 1018.7
20260502112547 33 208 2.6 5.2 0.00 0.00 0.00 78 1018.6
20260502112048 33 203 1.7 4.3 0.00 0.00 0.00 78 1018.7
20260502111610 33 211 2.6 5.2 0.00 0.00 0.00 79 1018.7
20260502111048 33 198 2.6 6.1 0.00 0.00 0.00 79 1018.6
20260502110548 32 200 1.7 6.1 0.00 0.00 0.00 80 1018.7
20260502110100 32 217 2.6 6.1 0.00 0.00 0.00 81 1018.8
20260502105549 31 229 2.6 5.2 0.00 0.00 0.00 82 1018.8
20260502105051 31 239 2.6 4.3 0.00 0.00 0.00 82 1018.8
20260502104556 31 217 1.7 3.5 0.00 0.00 0.00 82 1018.8
20260502104048 31 242 1.7 3.5 0.00 0.00 0.00 81 1018.8
20260502103551 31 226 0.9 2.6 0.00 0.00 0.00 81 1019.0
20260502103059 31 214 0.0 2.6 0.00 0.00 0.00 81 1019.0
20260502102549 31 224 0.0 3.5 0.00 0.00 0.00 81 1019.0
20260502102049 31 0 0.9 3.5 0.00 0.00 0.00 81 1019.1
20260502101602 31 221 0.9 2.6 0.00 0.00 0.00 81 1019.1
20260502101047 31 221 0.9 2.6 0.00 0.00 0.00 81 1019.1
20260502100548 31 234 0.9 3.5 0.00 0.00 0.00 81 1019.1
20260502100104 31 0 0.9 3.5 0.00 0.00 0.00 81 1019.2
20260502091050 32 219 0.9 3.5 0.00 0.00 0.00 80 1019.3
20260502090550 32 223 0.9 4.3 0.00 0.00 0.00 80 1019.3
20260502071048 33 238 2.6 5.2 0.00 0.00 0.00 77 1019.8
20260502070551 33 227 1.7 4.3 0.00 0.00 0.00 76 1019.8
20260502070107 34 197 1.7 3.5 0.00 0.00 0.00 75 1019.8
20260502065549 34 209 1.7 3.5 0.00 0.00 0.00 75 1019.6
20260502065048 34 231 0.9 6.1 0.00 0.00 0.00 75 1019.7
20260502064557 34 231 1.7 6.1 0.00 0.00 0.00 76 1019.7
20260502064048 34 227 2.6 6.1 0.00 0.00 0.00 76 1019.9
20260502063548 34 221 2.6 4.3 0.00 0.00 0.00 77 1020.0
20260502063057 34 236 2.6 5.2 0.00 0.00 0.00 77 1019.9
20260502062548 34 250 1.7 5.2 0.00 0.00 0.00 78 1020.0
20260502062048 34 234 1.7 3.5 0.00 0.00 0.00 78 1020.0
20260502061554 34 234 1.7 3.5 0.00 0.00 0.00 77 1020.0
20260502061051 34 234 0.9 3.5 0.00 0.00 0.00 78 1020.0
20260502060548 34 253 1.7 5.2 0.00 0.00 0.00 78 1020.0
20260502060058 34 232 2.6 6.1 0.00 0.00 0.00 78 1020.0
20260502055550 34 233 2.6 6.1 0.00 0.00 0.00 77 1020.0
20260502055048 34 219 2.6 5.2 0.00 0.00 0.00 76 1020.1
20260502054554 34 240 3.5 4.3 0.00 0.00 0.00 75 1020.0
20260502054048 35 234 1.7 3.5 0.00 0.00 0.00 75 1020.1
20260502053550 35 237 0.9 2.6 0.00 0.00 0.00 75 1020.1
20260502053102 35 243 0.9 2.6 0.00 0.00 0.00 75 1020.2
20260502052550 35 243 0.9 2.6 0.00 0.00 0.00 75 1020.3
20260502052052 35 243 0.9 2.6 0.00 0.00 0.00 75 1020.2
20260502051603 35 253 0.9 2.6 0.00 0.00 0.00 75 1020.3
20260502051048 35 244 0.9 5.2 0.00 0.00 0.00 75 1020.2
20260502050550 36 256 1.7 5.2 0.00 0.00 0.00 75 1020.2
20260502050056 36 261 3.5 5.2 0.00 0.00 0.00 74 1020.2
20260502045553 37 259 2.6 3.5 0.00 0.00 0.00 74 1020.1
20260502045048 37 249 1.7 3.5 0.00 0.00 0.00 73 1020.2
20260502044556 37 249 1.7 2.6 0.00 0.00 0.00 72 1020.2
20260502044052 37 249 1.7 2.6 0.00 0.00 0.00 72 1020.2
20260502043553 38 249 1.7 2.6 0.00 0.00 0.00 71 1020.1
20260502043058 38 249 1.7 2.6 0.00 0.00 0.00 70 1020.1
20260502042549 38 249 1.7 3.5 0.00 0.00 0.00 69 1020.2
20260502042052 38 249 1.7 3.5 0.00 0.00 0.00 68 1020.2
20260502041556 39 257 1.7 3.5 0.00 0.00 0.00 66 1020.3
20260502041052 39 245 1.7 3.5 0.00 0.00 0.00 65 1020.3
20260502040547 39 248 1.7 3.5 0.00 0.00 0.00 65 1020.3
20260502040106 39 237 1.7 3.5 0.00 0.00 0.00 65 1020.3
20260502035548 40 242 0.9 2.6 0.00 0.00 0.00 63 1020.3
20260502035048 40 301 0.9 1.7 0.00 0.00 0.00 62 1020.3
20260502034558 41 301 0.0 1.7 0.00 0.00 0.00 60 1020.3
20260502034048 41 301 0.9 1.7 0.00 0.00 0.00 60 1020.2
20260502033550 41 301 0.9 1.7 0.00 0.00 0.00 61 1020.3
20260502033057 41 301 0.0 1.7 0.00 0.00 0.00 60 1020.3
20260502032548 42 301 0.9 2.6 0.00 0.00 0.00 62 1020.3
20260502032048 42 301 0.9 2.6 0.00 0.00 0.00 60 1020.2
20260502031556 41 301 0.9 2.6 0.00 0.00 0.00 60 1020.2
20260502031052 41 20 0.9 1.7 0.00 0.00 0.00 60 1020.2
20260502030548 41 0 0.0 0.9 0.00 0.00 0.00 60 1020.3
20260502025547 42 0 0.0 0.0 0.00 0.00 0.00 60 1020.1
20260502025049 42 0 0.0 0.9 0.00 0.00 0.00 60 1020.2
20260502024558 42 0 0.0 0.9 0.00 0.00 0.00 60 1020.2
20260502024050 42 0 0.0 0.0 0.00 0.00 0.00 60 1020.2
20260502023548 42 0 0.0 0.0 0.00 0.00 0.00 59 1020.2
20260502023059 42 0 0.0 0.0 0.00 0.00 0.00 60 1020.1
20260502022548 43 0 0.0 0.0 0.00 0.00 0.00 59 1020.0
20260502022048 43 0 0.0 0.0 0.00 0.00 0.00 59 1020.1
20260502021552 43 0 0.0 0.0 0.00 0.00 0.00 59 1020.0
20260502021048 43 0 0.0 0.0 0.00 0.00 0.00 60 1019.9
20260502020549 44 0 0.0 0.0 0.00 0.00 0.00 58 1019.9
20260502020058 44 0 0.0 0.0 0.00 0.00 0.00 57 1019.9
20260502015548 45 0 0.0 0.0 0.00 0.00 0.00 54 1019.9
20260502015048 45 0 0.0 0.0 0.00 0.00 0.00 53 1019.8
20260502014556 46 0 0.0 0.0 0.00 0.00 0.00 53 1019.8
20260502014047 46 0 0.0 0.0 0.00 0.00 0.00 52 1019.7
20260502013549 47 0 0.0 0.0 0.00 0.00 0.00 51 1019.8
20260502013057 47 0 0.0 0.0 0.00 0.00 0.00 50 1019.8
20260502012550 48 0 0.0 1.7 0.00 0.00 0.00 50 1019.7
20260502012050 48 0 0.0 1.7 0.00 0.00 0.00 49 1019.6
20260502011551 49 0 0.0 1.7 0.00 0.00 0.00 48 1019.7
20260502011047 50 0 0.0 0.0 0.00 0.00 0.00 48 1019.6
20260502010549 50 0 0.0 0.9 0.00 0.00 0.00 48 1019.7
20260502010054 51 0 0.0 3.5 0.00 0.00 0.00 48 1019.6
20260502005550 51 291 0.0 3.5 0.00 0.05 0.00 46 1019.6
20260502005048 51 0 0.0 1.7 0.00 0.05 0.00 45 1019.6
20260502004554 51 0 0.0 2.6 0.00 0.05 0.00 46 1019.6
20260502004051 51 0 0.0 2.6 0.00 0.05 0.00 46 1019.5
20260502003548 51 296 0.0 3.5 0.00 0.05 0.00 45 1019.5
20260502003052 51 176 0.9 3.5 0.00 0.05 0.00 44 1019.5
20260502002555 51 22 0.0 7.8 0.00 0.05 0.00 45 1019.5
20260502002048 51 275 1.7 7.8 0.00 0.05 0.00 46 1019.5
20260502001557 51 15 4.3 7.8 0.00 0.05 0.00 44 1019.5
20260502001050 52 15 4.3 7.8 0.00 0.05 0.00 44 1019.5
20260502000548 52 20 2.6 8.7 0.00 0.05 0.00 44 1019.4
20260502000058 53 17 2.6 8.7 0.00 0.05 0.00 45 1019.3
20260501235550 53 13 1.7 5.2 0.00 0.05 0.00 43 1019.3
20260501235052 53 355 0.9 5.2 0.00 0.05 0.00 41 1019.5
20260501234553 53 314 0.9 7.0 0.00 0.05 0.00 43 1019.5
20260501234048 53 23 1.7 7.8 0.00 0.05 0.00 41 1019.3
20260501233550 53 29 5.2 7.8 0.00 0.05 0.00 41 1019.4
20260501233053 54 360 0.9 4.3 0.00 0.05 0.00 43 1019.4
20260501232548 54 360 0.9 7.8 0.00 0.05 0.00 41 1019.4
20260501232047 54 300 0.9 9.6 0.00 0.05 0.00 44 1019.5
20260501231557 53 57 0.9 9.6 0.00 0.05 0.00 42 1019.5
20260501231047 53 338 2.6 8.7 0.00 0.05 0.00 44 1019.5
20260501230548 53 275 1.7 8.7 0.00 0.05 0.00 41 1019.5
20260501225549 53 36 2.6 8.7 0.00 0.05 0.00 44 1019.6
20260501225047 53 35 5.2 8.7 0.00 0.05 0.00 43 1019.6
20260501224552 53 324 1.7 14.8 0.00 0.05 0.00 44 1019.5
20260501224050 52 352 8.7 14.8 0.00 0.05 0.00 42 1019.5
20260501223547 53 25 3.5 9.6 0.00 0.05 0.00 43 1019.5
20260501223050 53 13 4.3 9.6 0.00 0.05 0.00 44 1019.5
20260501222552 53 15 0.9 9.6 0.00 0.05 0.00 44 1019.6
20260501222048 53 269 2.6 11.3 0.00 0.05 0.00 45 1019.7
20260501221558 53 19 7.8 12.2 0.00 0.05 0.00 42 1019.7
20260501221047 53 25 3.5 12.2 0.00 0.05 0.00 43 1019.7
20260501220547 53 17 4.3 9.6 0.00 0.05 0.00 45 1019.6
20260501215548 53 13 1.7 7.0 0.00 0.05 0.00 46 1019.7
20260501215051 53 39 2.6 7.0 0.00 0.05 0.00 47 1019.8
20260501214555 53 316 1.7 5.2 0.00 0.05 0.00 44 1019.7
20260501214048 53 0 1.7 5.2 0.00 0.05 0.00 44 1019.8
20260501213553 53 267 1.7 7.0 0.00 0.05 0.00 46 1019.7
20260501213101 52 301 0.9 9.6 0.00 0.05 0.00 44 1019.8
20260501212548 52 278 1.7 9.6 0.00 0.05 0.00 43 1019.9
20260501212051 52 34 2.6 7.0 0.00 0.05 0.00 46 1019.9
20260501211607 53 332 1.7 6.1 0.00 0.05 0.00 45 1019.9
20260501211048 53 253 2.6 6.1 0.00 0.05 0.00 45 1019.9
20260501210548 53 286 1.7 7.0 0.00 0.05 0.00 46 1020.0
20260501210054 53 0 2.6 7.0 0.00 0.05 0.00 46 1020.0
20260501205548 54 323 1.7 9.6 0.00 0.05 0.00 45 1020.1
20260501205050 53 332 1.7 17.4 0.00 0.05 0.00 46 1020.1
20260501204557 53 312 5.2 17.4 0.00 0.05 0.00 46 1020.1
20260501204047 53 37 1.7 10.4 0.00 0.05 0.00 46 1020.2
20260501203547 53 265 1.7 10.4 0.00 0.05 0.00 48 1020.1
20260501203059 52 352 3.5 10.4 0.00 0.05 0.00 48 1020.2
20260501202549 52 14 4.3 10.4 0.00 0.05 0.00 51 1020.2
20260501202050 52 36 3.5 10.4 0.00 0.05 0.00 49 1020.3
20260501201600 52 274 2.6 10.4 0.00 0.05 0.00 48 1020.2
20260501201048 51 254 4.3 8.7 0.00 0.05 0.00 53 1020.3
20260501200548 50 342 1.7 11.3 0.00 0.05 0.00 50 1020.3
20260501200055 50 22 7.0 11.3 0.00 0.05 0.00 50 1020.4
20260501195548 51 240 1.7 7.8 0.00 0.05 0.00 50 1020.3
20260501195047 50 336 2.6 10.4 0.00 0.05 0.00 53 1020.3
20260501194617 49 11 5.2 13.9 0.00 0.05 0.00 50 1020.4
20260501194048 50 34 7.8 13.9 0.00 0.05 0.00 51 1020.4
20260501193548 50 20 2.6 11.3 0.00 0.05 0.00 53 1020.5
20260501193054 50 17 3.5 12.2 0.00 0.05 0.00 50 1020.4
20260501192548 50 253 3.5 12.2 0.00 0.05 0.00 48 1020.4
20260501192049 50 18 7.8 12.2 0.00 0.05 0.00 51 1020.5
20260501191559 50 271 5.2 10.4 0.00 0.05 0.00 55 1020.4
20260501191048 50 21 4.3 11.3 0.00 0.05 0.00 50 1020.6
20260501190548 50 336 2.6 11.3 0.00 0.05 0.00 51 1020.5
20260501190057 49 348 7.0 11.3 0.00 0.05 0.00 51 1020.5
20260501185547 49 26 5.2 14.8 0.00 0.05 0.00 52 1020.6
20260501185047 49 17 3.5 14.8 0.00 0.05 0.00 51 1020.6
20260501184554 50 30 5.2 14.8 0.00 0.05 0.00 52 1020.6
20260501184048 49 26 6.1 12.2 0.00 0.05 0.00 52 1020.7
20260501183548 50 34 4.3 12.2 0.00 0.05 0.00 52 1020.7
20260501183050 49 19 3.5 9.6 0.00 0.05 0.00 52 1020.7
20260501182548 49 290 1.7 13.0 0.00 0.05 0.00 51 1020.6
20260501182048 49 49 6.1 13.0 0.00 0.05 0.00 49 1020.7
20260501181615 50 22 2.6 11.3 0.00 0.05 0.00 53 1020.7
20260501181048 49 279 4.3 11.3 0.00 0.05 0.00 55 1020.8
20260501180548 49 55 4.3 11.3 0.00 0.05 0.00 54 1020.8
20260501180052 48 30 7.0 11.3 0.00 0.05 0.00 50 1020.8
20260501175548 49 10 3.5 8.7 0.00 0.05 0.00 51 1020.7
20260501175047 49 335 2.6 8.7 0.00 0.05 0.00 57 1020.8
20260501174557 48 168 1.7 7.0 0.00 0.05 0.00 60 1020.7
20260501174049 47 254 2.6 12.2 0.00 0.05 0.00 55 1020.9
20260501173548 47 40 4.3 12.2 0.00 0.05 0.00 57 1021.0
20260501173110 48 32 4.3 12.2 0.00 0.05 0.00 52 1020.9
20260501172549 48 35 2.6 7.0 0.00 0.05 0.00 55 1021.0
20260501172049 47 300 2.6 10.4 0.00 0.05 0.00 54 1020.9
20260501171552 48 42 4.3 10.4 0.00 0.05 0.00 54 1020.9
20260501171049 47 34 4.3 10.4 0.00 0.05 0.00 56 1020.9
20260501170549 47 15 1.7 10.4 0.00 0.05 0.00 56 1021.0
20260501170052 47 34 2.6 13.0 0.00 0.05 0.00 54 1021.0
20260501165548 47 15 6.1 13.0 0.00 0.05 0.00 54 1021.1
20260501165048 47 9 6.1 13.0 0.00 0.05 0.00 57 1020.9
20260501164554 47 15 6.1 13.0 0.00 0.05 0.00 57 1021.0
20260501164047 47 331 7.0 13.0 0.00 0.05 0.00 55 1021.0
20260501163548 48 26 3.5 12.2 0.00 0.05 0.00 58 1020.9
20260501163054 47 27 4.3 12.2 0.00 0.05 0.00 61 1020.9
20260501162550 47 30 6.1 12.2 0.00 0.05 0.00 57 1021.0
20260501162048 46 11 6.1 12.2 0.00 0.05 0.00 60 1021.0
20260501161557 47 26 2.6 13.0 0.00 0.05 0.00 63 1020.9
20260501161050 46 305 7.0 13.0 0.00 0.05 0.00 60 1021.0
20260501160550 47 18 7.0 13.0 0.00 0.05 0.00 61 1021.0